This is the latest recevied weather packets stored in our database for station/object KX4O-13. If no packets are shown the sender has not sent any weather packets the latest 10 day(s).
| Time | Temp. | Humidity | Pressure | Rain* | Wind** | Luminosity | Snow |
|---|---|---|---|---|---|---|---|
| 1778001053 | 27.22° C | 41% | 1010.9 hPa | 0 mm | - | 867 W/m² | - |
| 1778000753 | 26.67° C | 40% | 1010.8 hPa | 0 mm | - | 870 W/m² | - |
| 1778000453 | 26.11° C | 39% | 1010.8 hPa | 0 mm | - | 867 W/m² | - |
| 1778000153 | 26.11° C | 38% | 1011 hPa | 0 mm | - | 854 W/m² | - |
| 1777999855 | 26.67° C | 38% | 1011 hPa | 0 mm | - | 856 W/m² | - |
| 1777999553 | 26.67° C | 41% | 1011.1 hPa | 0 mm | - | 856 W/m² | - |
| 1777999253 | 26.11° C | 40% | 1011.1 hPa | 0 mm | - | 851 W/m² | - |
| 1777998953 | 26.11° C | 39% | 1011.3 hPa | 0 mm | - | 844 W/m² | - |
| 1777998655 | 26.11° C | 39% | 1011.3 hPa | 0 mm | - | 842 W/m² | - |
| 1777998353 | 26.11° C | 41% | 1011.4 hPa | 0 mm | - | 842 W/m² | - |
| 1777998053 | 26.11° C | 40% | 1011.5 hPa | 0 mm | - | 837 W/m² | - |
| 1777997753 | 25.56° C | 43% | 1011.6 hPa | 0 mm | - | 830 W/m² | - |
| 1777997453 | 26.11° C | 40% | 1011.7 hPa | 0 mm | - | 828 W/m² | - |
| 1777997153 | 25.56° C | 40% | 1011.8 hPa | 0 mm | - | 821 W/m² | - |
| 1777996853 | 25.56° C | 40% | 1011.9 hPa | 0 mm | - | 814 W/m² | - |
| 1777996553 | 25.56° C | 39% | 1012 hPa | 0 mm | - | 814 W/m² | - |
| 1777996255 | 25.56° C | 41% | 1012.1 hPa | 0 mm | - | 803 W/m² | - |
| 1777995953 | 25.56° C | 40% | 1012.2 hPa | 0 mm | - | 802 W/m² | - |
| 1777995653 | 25.56° C | 39% | 1012.2 hPa | 0 mm | - | 795 W/m² | - |
| 1777995353 | 25° C | 42% | 1012.2 hPa | 0 mm | - | 780 W/m² | - |
| 1777995053 | 25.56° C | 43% | 1012 hPa | 0 mm | - | 777 W/m² | - |
| 1777994753 | 25° C | 42% | 1012.1 hPa | 0 mm | - | 766 W/m² | - |
| 1777994453 | 25° C | 43% | 1012.2 hPa | 0 mm | - | 759 W/m² | - |
| 1777994153 | 25° C | 42% | 1012.1 hPa | 0 mm | - | 749 W/m² | - |
| 1777993855 | 24.44° C | 43% | 1012 hPa | 0 mm | - | 740 W/m² | - |
* Rain latest hour (hover to see other rain measurements)
** Current wind speed in m/s (hover to see current wind gust speed)